User: anonymous   Login
Location: Newark
(16.3678°N, 77.8722°E)
Time: 17:01:21
(UTC+00:00)
Language:

Explorer 11/Cluster Stage 4 - Orbit

View from above orbital plane
View from above orbital plane
View from above satellite
View from above satellite

Ground track
Ground track

The orbit data is extracted from the following two-line orbital elements,

1   107U 61013A   19339.33512182  .00000510  00000-0  49953-4 0  9999
2   107  28.7846 203.3506 0547164 114.2517 251.6197 14.08869984938235
Epoch (UTC): 05 December 2019 08:02:34
Eccentricity: 0.0547164
inclination: 28.7846°
perigee height: 467 km
apogee height: 1259 km
right ascension of ascending node: 203.3506°
argument of perigee: 114.2517°
revolutions per day: 14.08869984
mean anomaly at epoch: 251.6197°
orbit number at epoch: 93823

The dashed part of the orbit path shows where the satellite is in the earth's shadow,  

DLR